26 October 2014 Space
GT Aviation logo and link to the homepage
GT Aviation logo and link to the homepage Space
Space

GT Aviation UK - Airfield Weather Information

 

Weather information for EGHH


37 minutes ago, at 08:50 UTC, the wind was blowing at a speed of 3.1 meters per second (6.9 miles per hour) from South/Southwest in EGHH. The temperature was 14 degrees Celsius (57 degrees Fahrenheit), and the pressure was 1,022 hPa (30.18 inHg). The relative humidity was 71.8%. There were broken clouds at a height of 884 meter (2900 feet). The visibility was >11.3 kilometers (>7 miles).

The METAR this information has been retrieved from is: EGHH 260850Z 21006KT 9999 BKN029 14/09 Q1022

Search again?
Enter ICAO code: and show the report in
Don't know the ICAO code of the airport you want weather for?

To see a graphical view of the weather for EGHH, click here to visit SkyLinkWeather

 



GT Aviation UK
PO Box 15, WEYMOUTH DT4 8DS, UK
Email jane@gtaviation.co.uk Web www.gtaviation.co.uk

Use of this website constitutes acceptance of our User Agreement

TYNT INSIGHT technology is in use on this website to monitor text and pictures being copied from it. A record is kept only of the content copied.